Weather History for Kalispell, MT

Change the Weather History Date:

Friday, January 18, 2013

  Actual Average Record
Temperature  
Mean Temperature 21 °F 24 °F  
Max Temperature 33 °F 32 °F 54 °F (1919)
Min Temperature 9 °F 17 °F -21 °F (1963)
Degree Days  
Heating Degree Days 44 41  
Month to date heating degree days 761 757  
Since 1 July heating degree days 3871 4271  
Cooling Degree Days 0 0  
Month to date cooling degree days 0 0  
Year to date cooling degree days 0 0  
Moisture  
Dew Point 12 °F    
Average Humidity 92    
Maximum Humidity 100    
Minimum Humidity 84    
Precipitation  
Precipitation 0.00 in 0.04 in 0.37 in (1921)
Month to date precipitation 0.53 0.86  
Year to date precipitation 0.53 0.86  
Snow  
Snow 0.00 in - - ()
Month to date snowfall 4.0  
Year to date snowfall 4.0  
Since 1 July snowfall 12.8  
Snow Depth 2.00 in    
Sea Level Pressure  
Sea Level Pressure 30.22 in    
Wind  
Wind Speed 1 mph (West)    
Max Wind Speed 7 mph    
Max Gust Speed 7 mph    
Visibility 4 miles    
Events Fog    
T = Trace of Precipitation, MM = Missing Value Source: NWS Daily Summary

Daily Weather History Graph

Daily Weather History Graph

Search for Another Location

Airport:

Trip Planner

Search our weather history database for the weather conditions in past years. The results will help you decide how hot, cold, wet, or windy it might be!

Date:

Astronomy

Jan. 18, 2013 Rise Set
Actual Time 8:20 AM MST 5:15 PM MST
Civil Twilight 7:45 AM MST 5:50 PM MST
Nautical Twilight 7:06 AM MST 6:28 PM MST
Astronomical Twilight 6:29 AM MST 7:05 PM MST
Moon 11:21 AM MST (1/18) 12:47 AM MST (1/18)
Length of Visible Light 10h 04m
Length of Day
8h 54m
Waxing Crescent, 48% of the Moon is Illuminated
Jan 18
Waxing Crescent
Jan 18
First Quarter
Jan 26
Full
Feb 3
Last Quarter
Feb 10
New

Hourly Weather History & Observations

Time (MST) Temp. Windchill Dew Point Humidity Pressure Visibility Wind Dir Wind Speed Gust Speed Precip Events Conditions
12:45 AM 12.2 °F - 10.4 °F 92% 30.21 in 0.2 mi Calm Calm - N/A Fog Light Freezing Fog
12:55 AM 12.9 °F - 10.9 °F 92% 30.35 in 0.2 mi Calm Calm - N/A Fog Light Freezing Fog
1:02 AM 14.0 °F - 10.4 °F 86% 30.21 in 4.0 mi Calm Calm - N/A   Clear
1:29 AM 12.2 °F - 8.6 °F 85% 30.21 in 2.5 mi Calm Calm - N/A   Partly Cloudy
1:39 AM 10.4 °F - 8.6 °F 92% 30.21 in 4.0 mi Calm Calm - N/A   Mostly Cloudy
1:55 AM 12.0 °F - 10.0 °F 92% 30.35 in 3.0 mi Calm Calm - N/A   Mostly Cloudy
2:52 AM 10.4 °F - 8.6 °F 92% 30.19 in 7.0 mi Calm Calm - N/A   Scattered Clouds
2:55 AM 12.0 °F - 9.0 °F 88% 30.32 in 7.0 mi Calm Calm - N/A   Partly Cloudy
3:27 AM 14.0 °F - 10.4 °F 86% 30.20 in 6.0 mi Calm Calm - N/A   Mostly Cloudy
3:44 AM 12.2 °F - 10.4 °F 92% 30.20 in 4.0 mi Calm Calm - N/A   Overcast
3:55 AM 12.9 °F - 10.0 °F 88% 30.32 in 5.0 mi Calm Calm - N/A   Overcast
4:55 AM 12.0 °F - 9.0 °F 88% 30.31 in 5.0 mi Calm Calm - N/A   Mostly Cloudy
5:12 AM 10.4 °F - 8.6 °F 92% 30.16 in 2.0 mi Calm Calm - N/A   Overcast
5:23 AM 12.2 °F - 8.6 °F 85% 30.15 in 8.0 mi Calm Calm - N/A   Overcast
5:32 AM 12.2 °F - 10.4 °F 92% 30.16 in 1.2 mi Calm Calm - N/A   Overcast
5:40 AM 10.4 °F - 10.4 °F 100% 30.15 in 0.5 mi Calm Calm - N/A Fog Light Freezing Fog
5:55 AM 10.9 °F - 8.1 °F 88% 30.29 in 0.8 mi Calm Calm - N/A   Mist
6:15 AM 12.2 °F - 10.4 °F 92% 30.14 in 1.5 mi Calm Calm - N/A   Overcast
6:19 AM 12.2 °F - 8.6 °F 85% 30.14 in 3.0 mi Calm Calm - N/A   Overcast
6:32 AM 10.4 °F - 8.6 °F 92% 30.13 in 1.2 mi Calm Calm - N/A   Overcast
6:34 AM 12.2 °F - 8.6 °F 85% 30.13 in 0.8 mi Calm Calm - N/A   Mist
6:55 AM 12.0 °F 4.1 °F 10.0 °F 92% 30.27 in 0.8 mi WNW 4.6 mph - N/A   Mist
7:03 AM 12.2 °F - 8.6 °F 85% 30.13 in 1.5 mi Calm Calm - N/A   Overcast
7:06 AM 12.2 °F 6.1 °F 8.6 °F 85% 30.13 in 3.0 mi West 3.5 mph - N/A   Overcast
7:16 AM 12.2 °F 4.3 °F 10.4 °F 92% 30.13 in 1.5 mi WNW 4.6 mph - N/A   Overcast
7:19 AM 12.2 °F - 10.4 °F 92% 30.13 in 0.8 mi Calm Calm - N/A   Mist
7:38 AM 12.2 °F - 10.4 °F 92% 30.12 in 1.2 mi Calm Calm - N/A   Mostly Cloudy
7:50 AM 12.2 °F - 10.4 °F 92% 30.12 in 1.5 mi Calm Calm - N/A   Scattered Clouds
7:55 AM 12.0 °F - 10.0 °F 92% 30.26 in 1.8 mi Calm Calm - N/A   Partly Cloudy
8:09 AM 12.2 °F - 10.4 °F 92% 30.12 in 3.0 mi Calm Calm - N/A   Clear
8:55 AM 15.1 °F - 12.0 °F 88% 30.26 in 5.0 mi Calm Calm - N/A   Mostly Cloudy
9:55 AM 17.1 °F - 15.1 °F 92% 30.27 in 5.0 mi Calm Calm - N/A   Scattered Clouds
10:55 AM 21.9 °F - 19.9 °F 92% 30.27 in 3.0 mi Calm Calm - N/A   Clear
11:55 AM 24.1 °F - 21.0 °F 88% 30.26 in 4.0 mi Calm Calm - N/A   Clear
12:55 PM 25.0 °F - 23.0 °F 92% 30.25 in 5.0 mi Calm Calm - N/A   Clear
1:55 PM 25.0 °F - 23.0 °F 92% 30.25 in 5.0 mi Calm Calm - N/A   Partly Cloudy
2:55 PM 27.0 °F - 25.0 °F 92% 30.22 in 4.0 mi Calm Calm - N/A   Overcast
3:55 PM 30.9 °F - 26.1 °F 82% 30.22 in 5.0 mi Calm Calm - N/A   Haze
4:55 PM 30.0 °F - 27.0 °F 88% 30.23 in 4.0 mi Calm Calm - N/A   Mostly Cloudy
5:55 PM 21.9 °F 15.7 °F 21.0 °F 96% 30.25 in 10.0 mi WSW 4.6 mph - N/A   Clear
6:55 PM 17.1 °F 11.7 °F 16.0 °F 96% 30.28 in 10.0 mi SW 3.5 mph - N/A   Clear
7:55 PM 17.1 °F 11.7 °F 15.1 °F 92% 30.30 in 10.0 mi West 3.5 mph - N/A   Clear
8:55 PM 15.1 °F - 12.9 °F 91% 30.32 in 10.0 mi Calm Calm - N/A   Clear
9:55 PM 10.9 °F - 9.0 °F 92% 30.32 in 10.0 mi Calm Calm - N/A   Clear
10:55 PM 14.0 °F - 12.0 °F 92% 30.33 in 9.0 mi Calm Calm - N/A   Clear
11:55 PM 10.0 °F - 8.1 °F 92% 30.35 in 9.0 mi Calm Calm - N/A   Clear